Weather History for KSSI - April, 2012

Change the Weather History Date:

Monday, April 9, 2012

  Actual Average Record
Temperature  
Mean Temperature 68 °F 65 °F  
Max Temperature 75 °F 74 °F 89 °F (2011)
Min Temperature 60 °F 57 °F 40 °F (2000)
Degree Days  
Heating Degree Days 0 3  
Month to date heating degree days 4 27  
Since 1 July heating degree days 850 1455  
Cooling Degree Days 3 3  
Month to date cooling degree days 61 19  
Year to date cooling degree days 228 59  
Growing Degree Days 16 (Base 50)    
Moisture  
Dew Point 55 °F    
Average Humidity 61    
Maximum Humidity 81    
Minimum Humidity 41    
Precipitation  
Precipitation 0.00 in 0.10 in 2.47 in (1983)
Month to date precipitation 0.23 0.88  
Year to date precipitation 6.90 11.45  
Snow  
Snow 0.00 in - 0.00 in ()
Month to date snowfall 0.0  
Since 1 July snowfall 0.0  
Snow Depth 0.00 in    
Sea Level Pressure  
Sea Level Pressure 30.06 in    
Wind  
Wind Speed 9 mph (SSW)    
Max Wind Speed 14 mph    
Max Gust Speed 18 mph    
Visibility 8 miles    
Events      
T = Trace of Precipitation, MM = Missing Value Source: NWS Daily Summary

Daily Weather History Graph

Daily Weather History Graph

Search for Another Location

Airport or City:

Trip Planner

Search our weather history database for the weather conditions in past years. The results will help you decide how hot, cold, wet, or windy it might be!

Date:

Astronomy

Apr. 09, 2012 Rise Set
Actual Time 7:04 AM EDT 7:50 PM EDT
Civil Twilight 6:39 AM EDT 8:15 PM EDT
Nautical Twilight 6:10 AM EDT 8:44 PM EDT
Astronomical Twilight 5:40 AM EDT 9:13 PM EDT
Moon 11:28 PM EDT (4/9) 9:04 AM EDT (4/9)
Length of Visible Light 13h 35m
Length of Day
12h 46m
Waning Gibbous, 88% of the Moon is Illuminated
Apr 9
Waning Gibbous
Apr 13
Last Quarter
Apr 21
New
Apr 29
First Quarter
May 5
Full

Hourly Weather History & Observations

Time (EDT) Temp. Dew Point Humidity Pressure Visibility Wind Dir Wind Speed Gust Speed Precip Events Conditions
12:53 AM 66.9 °F 55.0 °F 66% 30.09 in 10.0 mi SSW 11.5 mph - N/A   Clear
1:53 AM 66.0 °F 55.9 °F 70% 30.08 in 10.0 mi SW 9.2 mph - N/A   Clear
2:53 AM 64.0 °F 55.9 °F 75% 30.06 in 10.0 mi SW 11.5 mph - N/A   Clear
3:53 AM 64.0 °F 54.0 °F 70% 30.06 in 10.0 mi SW 13.8 mph - N/A   Clear
4:53 AM 62.1 °F 55.0 °F 78% 30.05 in 4.0 mi WSW 9.2 mph - N/A   Haze
5:53 AM 61.0 °F 54.0 °F 78% 30.05 in 4.0 mi WSW 8.1 mph - N/A   Haze
6:53 AM 60.1 °F 54.0 °F 80% 30.06 in 4.0 mi West 6.9 mph - N/A   Haze
7:20 AM 60.8 °F 53.6 °F 77% 30.08 in 2.5 mi West 6.9 mph - N/A   Haze
7:34 AM 60.8 °F 53.6 °F 77% 30.08 in 3.0 mi West 6.9 mph - N/A   Haze
7:53 AM 60.1 °F 54.0 °F 80% 30.08 in 3.0 mi West 6.9 mph - N/A   Haze
8:53 AM 63.0 °F 54.0 °F 72% 30.09 in 4.0 mi West 4.6 mph - N/A   Haze
9:53 AM 66.9 °F 52.0 °F 59% 30.10 in 8.0 mi NNW 8.1 mph - N/A   Clear
10:53 AM 72.0 °F 48.9 °F 44% 30.11 in 10.0 mi North 9.2 mph - N/A   Clear
11:53 AM 73.0 °F 48.9 °F 42% 30.10 in 10.0 mi NNE 11.5 mph - N/A   Clear
12:53 PM 73.9 °F 52.0 °F 46% 30.09 in 10.0 mi NNE 11.5 mph - N/A   Clear
1:53 PM 73.0 °F 54.0 °F 51% 30.08 in 10.0 mi East 12.7 mph - N/A   Clear
2:53 PM 73.9 °F 53.1 °F 48% 30.06 in 10.0 mi East 9.2 mph - N/A   Clear
3:53 PM 73.0 °F 55.0 °F 53% 30.04 in 10.0 mi East 9.2 mph - N/A   Clear
4:53 PM 73.0 °F 55.0 °F 53% 30.03 in 10.0 mi East 9.2 mph - N/A   Clear
5:53 PM 71.1 °F 55.9 °F 59% 30.01 in 10.0 mi East 11.5 mph - N/A   Clear
6:53 PM 70.0 °F 57.0 °F 63% 30.00 in 10.0 mi East 9.2 mph - N/A   Clear
7:53 PM 68.0 °F 57.0 °F 68% 30.00 in 10.0 mi ESE 5.8 mph - N/A   Clear
8:53 PM 66.9 °F 57.9 °F 73% 30.01 in 10.0 mi SSE 5.8 mph - N/A   Clear
9:53 PM 68.0 °F 59.0 °F 73% 30.02 in 10.0 mi SSE 3.5 mph - N/A   Clear
10:53 PM 69.1 °F 61.0 °F 75% 30.02 in 10.0 mi South 5.8 mph - N/A   Clear
11:53 PM 68.0 °F 62.1 °F 81% 30.03 in 10.0 mi SSW 6.9 mph - N/A   Clear